www.pogodaiklimat.ru
Время
(UTC), дата
17 22.09
16 22.09
18 22.09
19 22.09
20 22.09
21 22.09
23 22.09
22 22.09
00 23.09
01 23.09
02 23.09
03 23.09
05 23.09
04 23.09
06 23.09
07 23.09
08 23.09
09 23.09
11 23.09
10 23.09
12 23.09
13 23.09
14 23.09
15 23.09
17 23.09
16 23.09
18 23.09
19 23.09
20 23.09
21 23.09
23 23.09
22 23.09
00 24.09
01 24.09
02 24.09
03 24.09
05 24.09
04 24.09
06 24.09
07 24.09
08 24.09
09 24.09
11 24.09
10 24.09
12 24.09
13 24.09
14 24.09
15 24.09
17 24.09
16 24.09
18 24.09
19 24.09
20 24.09
21 24.09
23 24.09
22 24.09
00 25.09
01 25.09
02 25.09
03 25.09
05 25.09
04 25.09
06 25.09
07 25.09
08 25.09
09 25.09
11 25.09
10 25.09
12 25.09
13 25.09
14 25.09
15 25.09
17 25.09
16 25.09
18 25.09
19 25.09
20 25.09
21 25.09
23 25.09
22 25.09
00 26.09
01 26.09
02 26.09
03 26.09
05 26.09
04 26.09
06 26.09
07 26.09
08 26.09
09 26.09
11 26.09
10 26.09
12 26.09
13 26.09
14 26.09
15 26.09
17 26.09
16 26.09
18 26.09
19 26.09
20 26.09
21 26.09
23 26.09
22 26.09
00 27.09
01 27.09
02 27.09
03 27.09
05 27.09
04 27.09
06 27.09
07 27.09
08 27.09
09 27.09
11 27.09
10 27.09
12 27.09
13 27.09
14 27.09
15 27.09
17 27.09
16 27.09
18 27.09
19 27.09
20 27.09
21 27.09
23 27.09
22 27.09
00 28.09
01 28.09
02 28.09
03 28.09
05 28.09
04 28.09
06 28.09
07 28.09
08 28.09
09 28.09
11 28.09
10 28.09
12 28.09
13 28.09
14 28.09
15 28.09
17 28.09
16 28.09
18 28.09
19 28.09
20 28.09
21 28.09
23 28.09
22 28.09
00 29.09
01 29.09
02 29.09
03 29.09
05 29.09
04 29.09
06 29.09
07 29.09
08 29.09
09 29.09
11 29.09
10 29.09
12 29.09
13 29.09
14 29.09
15 29.09
Ветер
(напр.,м/с)
Видим. Явления Облачность Т
(С)
Тd
(С)
f
(%)
Тe
(С)
Тes
(С)
Комфортность P
(гПа)
Po
(гПа)
Тmin
(С)
Tmax
(С)
R
(мм)
R24
(мм)
S
(см)
ЮВ 4 40 км 1/0
[Ci fib]
+22.3 +11.0 49 +24 +24 комфорт 1008.6 982.1
ЮВ 4 40 км 1/0
[Ci fib]
+24.5 +10.2 40 +25 +26 комфорт 1008.9 982.5
ЮВ 3 40 км 1/0
[Ac trans Ci fib]
+21.1 +10.8 52 +23 +23 комфорт 1008.9 982.2 +11.9 +26.2
ЮВ 4 40 км 3/0
[Ci fib]
+20.4 +11.5 57 +22 +22 комфорт 1008.8 982.1
ЮВ 4 35 км 3/0
[Ci fib]
+19.1 +11.8 63 +20 +20 тепло 1008.7 981.9
ЮВ 4 35 км 8/0
[Ci sp]
+19.3 +11.7 61 +20 +20 тепло 1008.5 981.7
ЮВ 3 30 км 4/0
[Ci fib]
+16.7 +11.8 73 +16 +16 тепло 1008.2 981.2
ЮВ 4 35 км 9/0
[Ci sp]
+18.6 +11.6 64 +19 +19 тепло 1008.3 981.4
ЮВ 4 30 км ясно +15.9 +11.9 77 +15 +15 тепло 1007.9 980.8
ЮВ 3-4
{4}
30 км ясно +15.9 +12.1 78 +15 +15 тепло 1007.5 980.4
Ю 3-4
{4}
30 км ясно +14.6 +11.7 83 +14 +14 тепло 1007.3 980.1
Ю 3 30 км ясно +14.1 +11.6 85 +13 +13 тепло 1007.2 980.0
Ю 4 30 км 6/1 1500 м
[Sc Ci]
+14.8 +10.9 77 +14 +14 тепло 1007.0 979.8
Ю 3-4
{4}
30 км ясно +14.0 +11.1 83 +13 +13 тепло 1007.0 979.8
Ю 4 30 км 8/1 1500 м
[Sc Ac trans Ci sp]
+16.1 +11.1 72 +15 +15 тепло 1006.8 979.8 +13.8 +21.2
Ю 4 30 км 8/0
[Ac und Ci sp]
+17.6 +11.6 68 +17 +18 тепло 1006.7 979.8
Ю 3 40 км 9/0
[Ac und Ci sp]
+19.3 +12.0 63 +21 +22 комфорт 1006.5 979.8
Ю 3 40 км 9/1 1500 м
[Sc Ac trans Ci sp]
+20.7 +12.3 59 +23 +26 комфорт 1006.1 979.5
ЮВ 2 40 км 4/1 1500 м
[Cu med, cong Ac trans Ci sp]
+24.6 +11.8 45 +26 +32 жарко 1005.3 979.1
Ю 3 40 км 5/1 1500 м
[Cu hum Ac trans Ci sp]
+23.2 +12.3 50 +26 +30 жарко 1005.8 979.4
З 2 40 км 8/3 1500 м
[Cb cap Ac cast Ci sp]
+24.5 +12.5 47 +26 +30 жарко 1004.9 978.7
Ю 2 40 км гроза без осадков 8/4 1500 м
[Cb cap Ac cast Ci ing]
+24.3 +12.9 49 +26 +29 жарко 1004.9 978.7
Ю 3 40 км гроза без осадков 9/4 1500 м
[Cb cap Ac cuf Ci ing]
+20.7 +12.5 59 +23 +24 комфорт 1005.2 978.6
Ю 1 20 км слаб. ливневой дождь, в посл. час гроза 10/5 1500 м
[Cb cap Ac cuf Ci ing]
+17.8 +15.6 87 +19 +20 тепло 1005.5 978.7 7
Ю 4 20 км слаб. ливневой дождь, в посл. час гроза 9/5 1020 м
[Cb calv Ac As]
+17.5 +15.7 89 +17 +17 тепло 1005.3 978.5
Ю 4 35 км гроза, ливневой дождь 10/1 1500 м
[Cb cap Ac cuf Ci ing]
+17.9 +16.1 89 +18 +18 тепло 1005.6 978.8
Ю 4 30 км в посл. час ливневой дождь {гроза} 9/6 1500 м
[Cu Sc Ac As]
+17.3 +15.1 87 +17 +17 тепло 1005.5 978.6 +16.1 +25.5 8
Ю 4 30 км в посл. час ливневой дождь 10/1 1500 м
[Cu hum Ac As]
+17.2 +15.0 87 +17 +17 тепло 1005.6 978.7
Ю 3 30 км 8/0
[Ac As]
+16.6 +15.0 90 +16 +16 тепло 1005.8 978.9
Ю 3 35 км {ливн. дождь} 5/1 1500 м
[Sc Ac trans Ci fib]
+16.4 +14.5 89 +16 +16 тепло 1005.8 978.8 0.0
ЮЗ 3 40 км 9/0
[Ac und]
+16.9 +13.2 79 +17 +17 тепло 1005.7 978.8
Ю 3 40 км 5/0
[Ac As Ci fib]
+16.3 +13.7 85 +16 +16 тепло 1005.8 978.8
ЮЗ 4 35 км {ливн. дождь} 5/0
[Ac trans]
+17.2 +12.2 72 +17 +17 тепло 1005.5 978.6 0.0
Ю 4 45 км 3/0
[Ac trans Ci fib]
+16.0 +11.4 74 +15 +15 тепло 1005.2 978.2
Ю 3 45 км 6/0
[Ci]
+15.3 +11.8 80 +15 +15 тепло 1005.4 978.3
Ю 4 45 км 8/1 1500 м
[Sc Ci sp]
+15.4 +11.0 75 +14 +14 тепло 1005.5 978.4
Ю 5 45 км 9/0
[Ac trans Ci sp]
+14.5 +10.5 77 +13 +13 тепло 1005.3 978.1
Ю 4 45 км 9/0
[Ci]
+14.7 +10.7 77 +14 +14 тепло 1005.2 978.1
Ю 4 40 км 9/0
[Ac trans Ci sp]
+15.8 +10.4 70 +15 +15 тепло 1005.0 978.0 +13.7 +17.6 0.0
Ю 6 40 км 9/0
[Ac trans Ci sp]
+18.0 +11.1 64 +17 +18 тепло 1004.9 978.1
Ю 5 40 км 9/1 2000 м
[Sc Ac trans Ci sp]
+18.8 +12.3 66 +19 +20 тепло 1005.1 978.4
Ю 5 40 км 9/1 600 м
[Cu Sc Ac und Ci sp]
+19.8 +13.0 65 +21 +23 комфорт 1005.5 978.8
З 7 45 км 9/4 1110 м
[Cu med, cong Ac trans Ci fib]
+21.5 +12.2 55 +24 +24 комфорт 1006.2 979.7
ЮЗ 7 40 км 8/4 960 м
[Cu med, cong Ac und]
+20.7 +12.8 61 +23 +23 комфорт 1005.7 979.1
З 6 45 км 9/6 1170 м
[Cu med, cong Ci fib]
+21.1 +11.8 55 +23 +24 комфорт 1006.4 979.8
ЮЗ 6 50 км 9/3 1320 м
[Cu med, cong Cs]
+22.0 +10.5 48 +24 +25 комфорт 1006.1 979.6
ЮЗ 5 55 км 9/4 1410 м
[Cu med, cong Ac trans Ci fib]
+21.4 +10.7 50 +23 +24 комфорт 1006.2 979.6
ЮЗ 6 60 км 9/1 1500 м
[Cu hum Ci sp]
+21.4 +10.6 50 +23 +24 комфорт 1005.8 979.3
ЮЗ 3 60 км 9/1 1500 м
[Cu hum Ac trans Ci sp]
+18.5 +11.0 62 +19 +19 тепло 1005.9 979.1
ЮЗ 3 60 км 9/1 1500 м
[Cu hum Ac trans Cs]
+20.3 +11.1 55 +22 +22 комфорт 1005.8 979.2
Ю 2 60 км 8/0
[Ci sp]
+17.7 +10.1 61 +18 +18 тепло 1005.9 979.0 +15.3 +22.3
ЮВ 3 60 км 9/0
[Ci sp]
+16.5 +11.1 70 +16 +16 тепло 1005.4 978.4
ЮВ 3 55 км 8/0
[Ci sp]
+15.9 +10.8 72 +15 +15 тепло 1004.8 977.8
ЮВ 4 55 км 8/0
[Ci sp]
+15.3 +11.1 76 +14 +14 тепло 1004.4 977.3
ЮВ 3 60 км 9/1 2000 м
[Sc Ci sp]
+15.2 +10.7 74 +15 +15 тепло 1002.2 975.2
ЮВ 3 55 км 8/0
[Ci sp]
+15.7 +10.8 73 +15 +15 тепло 1003.0 976.0
В 5 55 км 9/1 2000 м
[Sc Ac trans Ci sp]
+15.0 +10.7 75 +14 +14 тепло 1000.7 973.7
ЮВ 4 50 км 9/0
[Ac und Ci sp]
+15.7 +12.2 80 +15 +15 тепло 999.4 972.5
ЮВ 4 50 км 10/0
[Ac As]
+17.0 +12.5 75 +17 +17 тепло 998.2 971.5
З 4 45 км 10/5 1350 м
[Sc Ac As]
+14.8 +11.1 78 +14 +14 тепло 998.7 971.8
З 3 4000 м слаб. дождь 10/4 150 м
[Frnb As op]
+13.7 +12.9 95 +12 +12 тепло 997.9 970.9
З 3 40 км 10/9 300 м
[Cu Sc]
+13.9 +12.0 88 +13 +13 тепло 998.4 971.4
СЗ 2 3500 м слаб. дождь 10/4 100 м
[Frnb As op]
+13.4 +12.6 95 +13 +13 тепло 997.6 970.6 +13.4 +18.6 3
ЮЗ 1 3000 м дождь 10/8 90 м
[Frnb As op]
+13.6 +12.9 96 +14 +14 тепло 997.6 970.6
Ю 2 3500 м слаб. дождь 10/8 60 м
[Frnb As op]
+13.7 +13.0 96 +13 +13 тепло 997.5 970.5
ЮЗ 3 8000 м слаб. дождь 10/4 300 м
[Cu hum As op]
+14.2 +13.2 94 +13 +14 по сезону 997.5 970.6 4
ЮЗ 4 45 км в посл. час дождь 10/5 300 м
[Cu med, cong Ac As]
+15.4 +12.4 82 +14 +15 тепло 997.3 970.5
ЮЗ 2 45 км в посл. час дождь 10/5 300 м
[Cu med, cong As op]
+14.6 +12.8 89 +14 +15 тепло 997.3 970.4
З 7 45 км {дождь} 9/9 1050 м
[Cu Sc]
+14.6 +8.0 65 +13 +13 по сезону 997.8 970.8 0.0
З 7 45 км 10/8 800 м
[Cu Sc Ac As]
+13.6 +7.4 66 +11 +11 прохладно 997.8 970.7
З 4 45 км 10/8 800 м
[Cu Sc Ac As]
+14.2 +8.4 68 +13 +13 по сезону 997.5 970.5
З 3 55 км 10/8 800 м
[Cu Sc Ac As]
+14.1 +6.9 62 +13 +13 по сезону 997.9 970.9
З 2 55 км 9/9 1500 м
[Sc]
+13.7 +7.3 65 +13 +13 по сезону 997.5 970.5
З 3 60 км 10/8 1300 м
[Cu Sc Ac As]
+14.0 +6.7 61 +13 +13 по сезону 997.6 970.6
ЮЗ 3 30 км слаб. дождь 10/5 1000 м
[Sc As op]
+12.7 +7.8 72 +11 +11 по сезону 998.4 971.2 +12.7 +15.6 4
З 4 40 км слаб. дождь 10/4 1200 м
[Sc As op]
+12.2 +7.4 72 +10 +10 по сезону 998.4 971.2
З 3 45 км в посл. час дождь 10/9 1140 м
[Sc]
+11.9 +7.1 72 +10 +10 по сезону 998.4 971.2
З 4 45 км {дождь} 10/9 1170 м
[Sc]
+11.5 +6.5 71 +9 +9 по сезону 998.3 971.0 0.1
З 3 25 км слаб. дождь 10/3 840 м
[Sc As op]
+10.3 +6.5 77 +8 +8 по сезону 998.0 970.6
З 3 50 км 10/9 1200 м
[Sc]
+11.1 +6.1 71 +9 +9 по сезону 998.1 970.8
З 3 12 км слаб. дождь 10/0
[As op]
+9.2 +7.3 88 +7 +7 по сезону 998.0 970.5 1
З 4 20 км слаб. дождь 10/3 900 м
[Sc As op]
+8.9 +7.3 90 +6 +6 по сезону 997.8 970.3
З 5 11 км дождь 10/1 870 м
[Frnb As op]
+8.6 +7.4 92 +5 +5 по сезону 997.4 969.9
З 4 15 км слаб. дождь 10/0 1000 м
[As op]
+8.1 +6.9 92 +5 +5 прохладно 997.3 969.7 6
З 5 8000 м дождь 10/6 150 м
[Frnb As op]
+8.3 +7.4 94 +4 +4 по сезону 996.5 969.0
З 4 18 км слаб. дождь 10/3 180 м
[Frnb As op]
+8.1 +7.3 95 +5 +5 по сезону 996.9 969.3
СЗ 5 4500 м дождь 10/8 100 м
[Frnb As op]
+8.2 +7.3 94 +4 +4 прохладно 996.0 968.5 +8.0 +13.0 10
СЗ 6 6000 м слаб. дождь 10/8 180 м
[Frnb As op]
+8.2 +7.3 94 +4 +4 по сезону 995.5 968.0
СЗ 7 3500 м дождь 10/9 180 м
[Frnb]
+8.1 +7.2 94 +4 +4 по сезону 995.5 968.0
З 7 5000 м дождь 10/9 100 м
[Frnb]
+7.9 +7.0 94 +3 +3 холодно 995.4 967.9 5
З 6 5000 м дождь 10/9 210 м
[Frnb]
+7.9 +7.1 95 +4 +4 прохладно 995.0 967.5
З 7 7000 м дождь 10/9 210 м
[Frnb As op]
+7.8 +6.9 94 +3 +3 прохладно 995.1 967.6
СЗ 7 5000 м дождь 10/8 180 м
[Frnb As op]
+7.7 +6.8 94 +3 +3 очень
холодно
994.4 966.9 9
З 6 8000 м дождь 10/9 180 м
[Frnb]
+7.7 +6.9 95 +3 +3 очень
холодно
993.9 966.4
З 6 10 км дождь 10/8 210 м
[Frnb As op]
+7.5 +6.1 91 +3 +3 холодно 994.3 966.7
З 6 5000 м дождь 10/8 330 м
[Frnb As op]
+7.1 +5.4 89 +3 +3 очень
холодно
995.0 967.4 6
ЮЗ 7 14 км слаб. дождь 10/8 540 м
[Frnb As op]
+6.9 +5.2 89 +2 +2 очень
холодно
996.4 968.7
ЮЗ 5 20 км слаб. дождь 10/8 420 м
[Frnb As op]
+7.0 +5.3 89 +3 +3 холодно 995.8 968.2
ЮЗ 5 25 км слаб. дождь 10/3 600 м
[Sc As op]
+6.8 +4.6 86 +3 +3 очень
холодно
996.7 969.0 +6.7 +8.3 22
Ю 5 50 км в посл. час дождь 9/0
[Ac As]
+6.3 +4.2 86 +2 +2 холодно 997.4 969.6
Ю 5 50 км 9/0
[Ac As Ci sp]
+5.6 +3.9 89 +1 +1 холодно 997.6 969.8
Ю 5 50 км {дождь} 6/3 1410 м
[Sc Ci fib]
+5.1 +3.5 89 0 0 очень
холодно
998.1 970.2 0.0
ЮВ 4 50 км 3/0
[Ci sp]
+4.9 +3.4 90 +1 +1 холодно 999.6 971.6
Ю 4 50 км 5/1 1300 м
[Sc Ci sp]
+5.2 +3.4 88 +1 +1 прохладно 998.7 970.8
ЮВ 3 45 км {дождь} 1/0
[Ci fib]
+4.9 +3.6 91 +1 +1 холодно 1000.1 972.1 0.0
ЮВ 4-5
{5}
45 км ясно +5.4 +3.8 89 +1 +1 прохладно 1000.4 972.5
ЮВ 4 40 км 3/3 930 м
[Sc]
+5.0 +3.7 91 +1 +1 по сезону 1000.5 972.5
ЮВ 4 40 км 5/4 960 м
[Sc Ci fib]
+5.6 +4.2 91 +2 +2 прохладно 1000.8 972.9
Ю 3 20 км туман на расстоянии 9/4 960 м
[Sc Ci sp]
+5.1 +4.5 96 +1 +1 по сезону 1001.8 973.8
Ю 2 25 км 6/4 870 м
[Sc Ci sp]
+4.5 +3.7 95 +2 +2 по сезону 1001.4 973.3
Ю 4 20 км в посл. час туман 9/3 <50 м
[Sc As op]
+5.5 +5.0 97 +1 +1 прохладно 1002.4 974.4 +4.4 +6.8 0.0
Ю 3 25 км туман на расстоянии 9/1 900 м
[Sc Ac As Ci sp]
+7.2 +6.1 93 +4 +5 по сезону 1003.3 975.5
Ю 3 27 км 9/1 930 м
[Sc Ac und Ci sp]
+8.5 +6.3 86 +6 +7 тепло 1004.0 976.3
Ю 4 40 км {туман} 9/5 1000 м
[Cu med, cong Ac trans Ci sp]
+10.6 +6.4 75 +8 +9 по сезону 1004.1 976.6
З 5 50 км 9/6 750 м
[Cu med, cong Ac trans Ci sp]
+12.3 +6.4 67 +10 +11 тепло 1004.7 977.3
ЮЗ 3 45 км 9/6 960 м
[Cu med, cong Ac As]
+11.1 +6.3 72 +9 +10 тепло 1004.3 976.8
З 5 50 км 10/9 800 м
[Cu Sc]
+11.9 +5.9 67 +10 +10 по сезону 1005.3 977.9
З 3 55 км 10/9 870 м
[Sc]
+12.7 +6.3 65 +11 +12 по сезону 1005.8 978.4
ЮЗ 3 55 км 10/9 870 м
[Cu Sc]
+12.5 +6.1 65 +11 +11 тепло 1006.3 978.9
ЮЗ 4 60 км 9/9 800 м
[Sc]
+12.1 +6.4 68 +10 +10 по сезону 1006.4 979.0
Ю 2 60 км 10/9 1080 м
[Sc]
+11.5 +6.6 72 +10 +10 по сезону 1007.7 980.2
Ю 2 55 км 9/9 800 м
[Sc]
+12.2 +6.5 68 +11 +11 тепло 1006.8 979.4
Ю 3 65 км 10/10 600 м
[Sc]
+11.2 +6.9 75 +9 +9 по сезону 1008.4 980.8 +5.5 +12.7
Ю 3 65 км 10/10 1080 м
[Sc]
+11.1 +6.2 72 +9 +9 по сезону 1009.2 981.6
Ю 4 70 км 10/10 1110 м
[Sc]
+11.1 +6.0 71 +9 +9 тепло 1009.9 982.3
Ю 3 70 км 10/9 1230 м
[Sc]
+10.3 +5.3 71 +8 +8 по сезону 1010.2 982.5
ЮВ 3
{5}
65 км 3/0
[Ci sp]
+8.5 +4.9 78 +6 +6 по сезону 1010.4 982.5
Ю 3 70 км 6/3 1230 м
[Sc Ci sp]
+8.4 +4.6 77 +6 +6 тепло 1010.4 982.5
Ю 4 65 км 1/0
[Ci sp]
+7.8 +5.1 83 +4 +4 по сезону 1010.4 982.4
ЮВ 3 60 км 1/0
[Ci sp]
+6.6 +4.5 86 +3 +3 по сезону 1010.7 982.6
ЮВ 3-4
{6}
60 км ясно +6.7 +4.6 86 +4 +4 тепло 1010.7 982.6
ЮВ 4 60 км ясно +7.1 +4.6 84 +4 +4 по сезону 1010.6 982.5
Ю 3 50 км 1/0
[Ci sp]
+5.2 +4.4 95 +2 +2 по сезону 1011.4 983.1
Ю 3-4
{5}
60 км ясно +5.4 +4.2 92 +2 +2 по сезону 1011.2 983.0
Ю 2 50 км 1/0
[Ci sp]
+5.7 +4.4 91 +3 +3 по сезону 1011.4 983.2 +4.8 +11.4
Ю 2 45 км 1/0
[Ac lent Ci sp]
+8.3 +5.4 82 +6 +8 тепло 1011.4 983.4
Ю 3 45 км 3/0
[Ac trans Ci sp]
+10.9 +7.1 77 +9 +11 тепло 1011.7 984.0
ЮВ 3 50 км 5/0
[Ac lent Cs]
+12.5 +7.1 70 +11 +15 тепло 1011.6 984.1
ЮВ 3 50 км 8/1 900 м
[Cu hum Ac und Ci fib]
+15.0 +6.4 56 +14 +18 тепло 1011.5 984.2
ЮВ 4 50 км 4/1 700 м
[Cu hum Ac trans Ci fib]
+14.8 +6.5 58 +14 +17 тепло 1011.5 984.2
В 4 50 км 9/6 1000 м
[Sc Ac und]
+15.7 +6.0 52 +15 +16 тепло 1011.4 984.2
В 4 50 км 9/9 1080 м
[Cu Sc]
+15.7 +6.2 53 +15 +15 тепло 1011.0 983.8
В 5 60 км 10/9 1200 м
[Cu Sc]
+14.6 +6.6 59 +13 +13 тепло 1011.3 984.0
В 5 70 км в посл. час дождь 10/9 1200 м
[Cu Sc]
+13.7 +5.5 58 +12 +12 тепло 1011.5 984.1 0.0
В 2 35 км слаб. дождь 9/0 1500 м
[As op]
+11.7 +7.9 77 +11 +11 тепло 1012.6 985.0
В 3 60 км в посл. час дождь 10/9 1200 м
[Cu Sc]
+12.9 +6.2 64 +12 +12 тепло 1011.9 984.4
СВ 2 35 км в посл. час дождь 10/1 1000 м
[Sc As op]
+11.5 +8.2 80 +10 +10 по сезону 1012.9 985.2 +5.8 +16.2 0.6
СВ 2 30 км слаб. дождь 10/10 1110 м
[Sc]
+11.4 +7.6 77 +10 +10 тепло 1013.5 985.8
СВ 2 30 км слаб. дождь 10/0 1300 м
[As op]
+10.9 +8.3 84 +10 +10 тепло 1013.8 986.1
В 3 18 км слаб. дождь 10/0 1170 м
[As op]
+10.3 +9.0 92 +8 +8 по сезону 1014.2 986.4 0.5
СЗ 2 17 км слаб. дождь 10/1 210 м
[Frnb As op]
+9.9 +9.1 95 +8 +8 тепло 1014.1 986.3
СЗ 1 17 км слаб. дождь 10/0 1140 м
[As op]
+10.0 +8.9 93 +9 +9 тепло 1014.4 986.6
З 2 22 км в посл. час дождь 10/5 200 м
[Sc As op]
+9.9 +9.0 94 +8 +8 тепло 1014.2 986.4 0.6
С 2 18 км 10/9 270 м
[Sc]
+9.7 +8.9 95 +8 +8 тепло 1014.4 986.5
СЗ 2 20 км 10/10 270 м
[Sc]
+9.8 +8.9 94 +8 +8 тепло 1014.5 986.6
СЗ 1 25 км 10/9 420 м
[Sc]
+10.0 +8.5 90 +9 +9 тепло 1014.6 986.7
С 1 25 км 10/9 870 м
[Sc]
+9.9 +9.0 94 +9 +9 тепло 1015.1 987.2
С 1 30 км 10/9 1200 м
[Sc]
+10.0 +8.9 93 +9 +9 тепло 1014.9 987.0
С 1 30 км 10/9 1000 м
[Sc]
+10.4 +8.5 88 +10 +10 тепло 1015.4 987.6 +9.7 +11.5 0.6
СЗ 1 23 км 10/9 900 м
[Sc]
+10.5 +8.8 89 +10 +10 тепло 1015.8 988.0
С 1 16 км слаб. дождь 10/9 600 м
[Cu Sc]
+10.7 +9.1 90 +10 +10 тепло 1016.5 988.7
СЗ 1 10 км дождь 10/9 600 м
[Cu Sc]
+11.1 +9.2 88 +11 +11 тепло 1016.9 989.1 0.4
З 3 28 км в посл. час дождь 10/9 240 м
[Cu Sc]
+12.8 +8.7 76 +11 +12 тепло 1016.7 989.1
З 2 10 км слаб. дождь 10/9 700 м
[Cu Sc]
+11.6 +9.0 84 +10 +11 тепло 1016.9 989.1
СЗ 2 30 км {дождь} 9/9 450 м
[Cu Sc]
+13.4 +9.2 76 +13 +13 тепло 1016.6 989.0 0.2
СЗ 3 35 км 9/5 660 м
[Cu Sc Ac trans]
+14.8 +9.0 68 +14 +15 тепло 1016.1 988.7
СЗ 4 35 км 8/3 750 м
[Cu Sc Ac trans Ci sp]
+15.4 +9.0 66 +14 +15 тепло 1015.9 988.5
СЗ 3 30 км 6/1 750 м
[Cu hum Ac trans Ci sp]
+15.5 +8.4 63 +15 +16 тепло 1016.2 988.8
Местоположение метеостанции Дрезден (Германия): широта 51.13 долгота 13.78 высота над уровнем моря 226 м.
В архиве по умолчанию представлена погода в Дрездене за последнюю неделю. Архивные данные за месяц целиком и за предыдущие месяцы, начиная с января 2011 года, Вы можете получить, выбрав интересующий диапазон дат из раскрывающегося списка и нажав кнопку "Найти!".
*Определитесь, кто Вы:
Внимание! Время в таблицах - всемирное. Для получения местного времени необходимо прибавить поправку, которая равна 1 ч.
Смотрите также архив погоды в соседних городах и на ближайших метеорологических станциях:
Партнеры нашего сайта:      
Пояснения к столбцам:
  • Ветер - указаны скорость ветра в м/с - средняя за 10 мин, порывы в срок и между сроками (в фигурных скобках) и направление, откуда дует ветер: С - северный,
  • СВ - северо-восточный, В - восточный, ЮВ - юго-восточный, Ю - южный, ЮЗ - юго-западный, З - западный, СЗ - северо-западный.
  • Видимость - горизонтальная дальность видимости в метрах или километрах. При видимости от 1 до 10 км при отсутствии осадков обычно наблюдается дымка, при ухудшении видимости до 1 км и менее - туман. В сухую погоду видимость может ухудшаться дымом, пылью или мглою.
  • Явления - указаны атмосферные явления, наблюдавшиеся в срок или в последний час перед сроком; фигурными скобками обозначены явления, наблюдавшиеся между сроками (за 1-3 часа до срока); квадратными скобками обозначены град или гололедные отложения с указанием их диаметра в мм.
  • Облачность - указаны через наклонную черту общая и нижняя облачность в баллах и высота нижней границы облаков в метрах; квадратными скобками обозначены формы облаков: Ci - перистые, Cs - перисто-слоистые, Cc - перисто-кучевые, Ac - высококучевые, As - высокослоистые, Sc - слоисто-кучевые, Ns - слоисто-дождевые, Cu - кучевые, Cb - кучево-дождевые. Подробнее классификацию облаков см. в Атласе облаков (PDF).
  • T - Температура воздуха - температура, измеренная на высоте 2 м над землей.
  • Td - Температура точки росы - температура, при понижении до которой содержащийся в воздухе водяной пар достигнет насыщения.
  • f - Относительная влажность воздуха - влажноcть воздуха, измеренная на высоте 2 м над землей.
  • Te - Эффективная температура - температура, которую ощущает одетый по сезону человек в тени. Характеристика душности погоды. При расчете учитывается влияние влажности воздуха и скорости ветра на теплоощущения человека.
  • Tes - Эффективная температура на солнце - температура, которую ощущает человек, с поправкой на солнечный нагрев. Характеристика знойности погоды. Зависит от высоты солнца над горизонтом, облачности и скорости ветра. Ночью, в пасмурную погоду, а также при ветре 12 м/с и более поправка равна нулю.
  • P - Атмосферное давление - приведенное к уровню моря атмосферное давление.
  • Po - Атмосферное давление - измеренное на уровне метеостанции атмосферное давление.
  • Tmin - Минимальная температура - минимум температуры воздуха на высоте 2 м над землей.
  • Tmax - Максимальная температура - максимум температуры воздуха на высоте 2 м над землей.
  • R - Количество осадков - Количество выпавших осадков за период времени, мм. При наведении курсора мыши на число - период времени, за который выпало указанное количество осадков.
  • R24 - Количество осадков - Количество выпавших осадков за 24 часа, мм.
  • S - Снежный покров - Высота снежного покрова, см. При наведении курсора мыши на число - состояние снежного покрова и степень покрытия местности в баллах.